IZ3ZOD-13 Weather Reports


Display with metric or nautical units.
time (UTC)temp
F
wind
direction
speed
MPH
gust
MPH
rain 1hr
in
rain 24hr
in
rain mn
in
humidity
%
barometer
mb
20260506033016 56 330 0.0 2.0 0.09 0.15 0.09 95 1010.8
20260506032615 56 44 1.0 2.0 0.09 0.15 0.09 95 1011.1
20260506032003 56 70 2.0 3.0 0.07 0.13 0.07 94 1011.1
20260506031814 56 81 2.0 3.0 0.06 0.12 0.07 94 1011.3
20260506031203 56 216 2.0 6.0 0.03 0.09 0.03 94 1011.4
20260506030803 56 215 2.0 6.0 0.01 0.07 0.01 94 1011.7
20260506030403 56 249 1.0 3.0 0.00 0.06 0.00 94 1011.7
20260506030216 56 308 0.0 1.0 0.00 0.06 0.00 94 1011.4
20260506025816 56 314 0.0 1.0 0.00 0.06 0.00 93 1011.6
20260506025415 56 314 0.0 1.0 0.00 0.06 0.00 93 1011.5
20260506024803 56 0 0.0 0.0 0.00 0.06 0.00 93 1011.5
20260506024403 56 0 0.0 0.0 0.00 0.06 0.00 93 1011.4
20260506024004 56 0 0.0 0.0 0.00 0.06 0.00 93 1011.4
20260506023603 56 347 0.0 2.0 0.00 0.06 0.00 93 1011.6
20260506023203 56 351 0.0 2.0 0.00 0.06 0.00 93 1011.5
20260506022803 56 351 0.0 2.0 0.00 0.06 0.00 93 1011.4
20260506022403 56 358 0.0 1.0 0.00 0.06 0.00 93 1011.7
20260506022003 56 1 0.0 1.0 0.00 0.06 0.00 93 1011.6
20260506021603 56 6 0.0 1.0 0.00 0.06 0.00 93 1011.6
20260506021203 56 5 0.0 2.0 0.00 0.06 0.00 93 1011.8
20260506020803 56 6 0.0 2.0 0.00 0.06 0.00 93 1011.6
20260506020403 56 7 0.0 1.0 0.00 0.06 0.00 93 1011.6
20260506020217 56 6 1.0 1.0 0.00 0.06 0.00 93 1011.6
20260506015603 56 346 1.0 3.0 0.00 0.06 0.00 93 1011.8
20260506015416 56 342 1.0 3.0 0.00 0.06 0.00 93 1011.8
20260506014803 56 340 1.0 3.0 0.00 0.06 0.00 93 1011.8
20260506014403 56 349 1.0 6.0 0.00 0.06 0.00 93 1012.0
20260506014003 56 350 1.0 6.0 0.00 0.06 0.00 93 1012.0
20260506013603 56 345 1.0 3.0 0.00 0.06 0.00 93 1011.8
20260506013203 56 341 1.0 2.0 0.00 0.06 0.00 94 1011.9
20260506012803 56 353 1.0 3.0 0.00 0.06 0.00 94 1012.0
20260506012403 56 354 1.0 3.0 0.00 0.06 0.00 94 1011.9
20260506012216 56 352 1.0 3.0 0.00 0.06 0.00 94 1012.0
20260506011603 56 355 1.0 4.0 0.00 0.06 0.00 94 1011.9
20260506011203 56 4 1.0 4.0 0.00 0.06 0.00 94 1012.1
20260506011014 56 7 1.0 4.0 0.00 0.06 0.00 94 1012.0
20260506010403 56 10 1.0 2.0 0.00 0.06 0.00 94 1011.9
20260506010003 56 12 1.0 2.0 0.00 0.06 0.00 94 1012.0
20260506005603 56 9 1.0 2.0 0.00 0.06 0.00 94 1012.0
20260506005203 56 6 1.0 4.0 0.00 0.06 0.00 94 1012.0
20260506004803 56 7 2.0 4.0 0.00 0.06 0.00 94 1011.9
20260506004403 56 22 2.0 4.0 0.00 0.06 0.00 94 1012.0
20260506004214 56 25 1.0 3.0 0.00 0.06 0.00 94 1012.0
20260506003603 55 38 1.0 2.0 0.00 0.06 0.00 94 1012.2
20260506003413 55 15 0.0 2.0 0.00 0.06 0.00 94 1012.3
20260506002803 56 0 0.0 0.0 0.00 0.06 0.00 93 1012.1
20260506002403 56 332 0.0 1.0 0.00 0.06 0.00 93 1012.2
20260506002003 56 340 0.0 2.0 0.00 0.06 0.00 93 1012.3
20260506001603 56 343 0.0 2.0 0.00 0.06 0.00 93 1012.2
20260506001203 56 356 0.0 2.0 0.00 0.06 0.00 93 1012.1
20260506000803 56 10 0.0 2.0 0.00 0.06 0.00 93 1012.3
20260506000403 56 9 1.0 2.0 0.00 0.06 0.00 93 1012.4
20260506000003 56 3 1.0 2.0 0.00 0.06 0.00 93 1012.2
20260505235603 56 360 0.0 2.0 0.00 0.06 0.00 93 1012.3
20260505235203 56 357 1.0 2.0 0.00 0.06 0.00 93 1012.4
20260505234803 56 352 1.0 2.0 0.00 0.06 0.00 93 1012.4
20260505234403 56 342 1.0 3.0 0.00 0.06 0.00 93 1012.3
20260505234215 56 343 1.0 3.0 0.00 0.06 0.00 93 1012.2
20260505233603 56 345 2.0 3.0 0.00 0.06 0.00 94 1012.4
20260505233203 56 353 1.0 3.0 0.00 0.06 0.00 94 1012.3
20260505233013 56 353 1.0 3.0 0.00 0.06 0.00 94 1012.4
20260505232403 56 357 1.0 3.0 0.00 0.06 0.00 94 1012.3
20260505232003 56 2 1.0 3.0 0.00 0.06 0.00 94 1012.3
20260505231603 56 2 2.0 3.0 0.00 0.06 0.00 94 1012.4
20260505231203 56 359 3.0 6.0 0.00 0.06 0.00 94 1012.4
20260505231015 56 2 2.0 6.0 0.00 0.06 0.00 94 1012.5
20260505230403 56 359 2.0 6.0 0.00 0.06 0.00 93 1012.4
20260505230214 56 358 2.0 4.0 0.00 0.06 0.00 93 1012.5
20260505225603 56 352 2.0 4.0 0.00 0.06 0.00 93 1012.6
20260505225203 56 357 2.0 6.0 0.00 0.06 0.00 93 1012.7
20260505224803 57 3 2.0 6.0 0.00 0.06 0.00 93 1012.7
20260505224616 57 6 2.0 6.0 0.00 0.06 0.00 93 1012.8
20260505224003 57 5 2.0 6.0 0.00 0.06 0.00 93 1012.8
20260505223815 57 2 3.0 9.0 0.00 0.06 0.00 93 1012.9
20260505223203 57 357 4.0 9.0 0.00 0.06 0.00 93 1012.9
20260505222803 57 356 3.0 8.0 0.00 0.06 0.00 93 1013.0
20260505222403 57 1 3.0 8.0 0.00 0.06 0.00 93 1012.9
20260505222003 57 7 3.0 7.0 0.00 0.06 0.00 93 1012.9
20260505221603 57 5 3.0 7.0 0.00 0.06 0.00 93 1013.0
20260505221416 57 6 3.0 7.0 0.00 0.06 0.00 93 1013.1
20260505220803 57 358 3.0 6.0 0.00 0.06 0.00 93 1013.2
20260505220615 57 356 2.0 6.0 0.00 0.06 0.00 92 1013.1
20260505220004 57 1 3.0 6.0 0.00 0.06 0.00 92 1013.1
20260505215603 57 1 3.0 6.0 0.00 0.06 0.06 92 1013.1
20260505215413 57 357 3.0 6.0 0.00 0.06 0.06 92 1013.1
20260505215018 57 355 2.0 7.0 0.00 0.06 0.06 92 1013.2
20260505214403 57 355 2.0 7.0 0.00 0.06 0.06 92 1013.2
20260505214003 57 353 2.0 4.0 0.00 0.06 0.06 92 1013.2
20260505213603 57 351 2.0 4.0 0.00 0.06 0.06 91 1013.1
20260505213203 58 352 2.0 4.0 0.00 0.06 0.06 91 1013.1
20260505213014 58 349 2.0 4.0 0.00 0.06 0.06 91 1013.3
20260505212403 58 357 2.0 4.0 0.00 0.06 0.06 91 1013.3
20260505212003 58 1 2.0 4.0 0.00 0.06 0.06 91 1013.4
20260505211603 58 358 2.0 7.0 0.00 0.06 0.06 91 1013.5
20260505211203 58 360 2.0 7.0 0.00 0.06 0.06 91 1013.4
20260505211016 58 360 2.0 7.0 0.00 0.06 0.06 91 1013.4
20260505210403 58 2 2.0 6.0 0.00 0.06 0.06 91 1013.5
20260505210003 58 3 2.0 6.0 0.00 0.06 0.06 91 1013.4
20260505205603 58 359 2.0 6.0 0.00 0.06 0.06 91 1013.4
20260505205203 58 352 2.0 4.0 0.00 0.06 0.06 91 1013.3
20260505204803 58 354 3.0 8.0 0.00 0.06 0.06 91 1013.4
20260505204403 58 359 3.0 8.0 0.00 0.06 0.06 91 1013.4
20260505204003 58 359 3.0 8.0 0.00 0.06 0.06 91 1013.4
20260505203603 58 353 2.0 6.0 0.00 0.06 0.06 91 1013.3
20260505203203 58 353 2.0 7.0 0.00 0.06 0.06 91 1013.3
20260505202803 58 354 3.0 7.0 0.00 0.06 0.06 91 1013.3
20260505202403 58 347 3.0 7.0 0.00 0.06 0.06 91 1013.3
20260505202214 58 344 3.0 7.0 0.00 0.06 0.06 91 1013.3
20260505201603 58 350 3.0 9.0 0.00 0.06 0.06 91 1013.4
20260505201203 58 3 4.0 9.0 0.00 0.06 0.06 91 1013.4
20260505200803 58 2 4.0 9.0 0.00 0.06 0.06 91 1013.5
20260505200403 58 358 4.0 9.0 0.00 0.06 0.06 91 1013.4
20260505200003 58 354 4.0 9.0 0.00 0.06 0.06 91 1013.3
20260505195603 58 350 3.0 8.0 0.00 0.06 0.06 91 1013.3
20260505195203 58 343 2.0 4.0 0.00 0.06 0.06 91 1013.4
20260505194803 58 341 2.0 7.0 0.00 0.06 0.06 91 1013.3
20260505194403 58 342 3.0 7.0 0.00 0.06 0.06 91 1013.2
20260505194212 58 342 3.0 7.0 0.00 0.06 0.06 91 1013.3
20260505193603 58 344 2.0 6.0 0.00 0.06 0.06 91 1013.4
20260505193203 58 341 2.0 3.0 0.00 0.06 0.06 91 1013.4
20260505193016 58 345 2.0 7.0 0.00 0.06 0.06 91 1013.4
20260505192615 58 352 2.0 7.0 0.00 0.06 0.06 91 1013.3
20260505192215 58 360 3.0 7.0 0.00 0.06 0.06 91 1013.3
20260505191603 58 355 2.0 6.0 0.00 0.06 0.06 91 1013.2
20260505191203 58 350 2.0 6.0 0.00 0.06 0.06 91 1013.3
20260505190803 58 354 2.0 4.0 0.00 0.06 0.06 91 1013.3
20260505190617 58 354 2.0 4.0 0.00 0.06 0.06 91 1013.3
20260505190004 58 352 2.0 6.0 0.00 0.06 0.06 91 1013.2
20260505185603 58 357 2.0 6.0 0.00 0.06 0.06 91 1013.4
20260505185203 58 357 2.0 6.0 0.00 0.06 0.06 91 1013.3
20260505184803 58 359 2.0 4.0 0.00 0.06 0.06 91 1013.1
20260505184403 58 359 2.0 4.0 0.00 0.06 0.06 91 1013.0
20260505184003 58 2 2.0 4.0 0.00 0.06 0.06 91 1013.1
20260505183603 58 2 3.0 7.0 0.00 0.06 0.06 90 1013.2
20260505183203 58 1 3.0 7.0 0.00 0.06 0.06 91 1013.2
20260505182803 58 4 2.0 7.0 0.00 0.06 0.06 90 1013.1
20260505182616 58 3 2.0 4.0 0.00 0.06 0.06 90 1013.1
20260505182215 58 4 2.0 3.0 0.00 0.06 0.06 91 1013.1
20260505181603 58 360 2.0 5.0 0.00 0.06 0.06 90 1013.0
20260505181203 58 356 3.0 7.0 0.00 0.06 0.06 90 1013.1
20260505180803 58 356 3.0 7.0 0.00 0.06 0.06 90 1013.2
20260505180403 58 360 3.0 6.0 0.00 0.06 0.06 90 1013.0
20260505180003 58 3 3.0 8.0 0.00 0.06 0.06 90 1013.1
20260505175603 58 5 3.0 8.0 0.00 0.06 0.06 90 1013.1
20260505175416 58 6 4.0 8.0 0.00 0.06 0.06 90 1013.0
20260505174803 59 9 3.0 7.0 0.00 0.06 0.06 90 1012.9
20260505174403 59 2 3.0 6.0 0.00 0.06 0.06 90 1012.9
20260505174214 59 360 4.0 8.0 0.00 0.06 0.06 90 1012.9
20260505173603 59 360 4.0 8.0 0.00 0.06 0.06 90 1012.9
20260505173203 59 355 4.0 8.0 0.00 0.06 0.06 90 1012.9
20260505173017 59 360 4.0 8.0 0.00 0.06 0.06 90 1013.0
20260505172403 59 356 5.0 8.0 0.00 0.06 0.06 90 1013.1
20260505172003 59 359 5.0 9.0 0.00 0.06 0.06 90 1012.9
20260505171603 59 5 6.0 9.0 0.00 0.06 0.06 89 1012.9
20260505171203 59 9 6.0 9.0 0.00 0.06 0.06 90 1012.8
20260505170803 59 12 6.0 10.0 0.00 0.06 0.06 90 1012.8
20260505170403 59 13 6.0 10.0 0.00 0.06 0.06 90 1012.8
20260505170003 59 8 6.0 10.0 0.00 0.06 0.06 90 1012.8
20260505165603 59 11 6.0 11.0 0.00 0.06 0.06 90 1012.7
20260505165203 60 14 6.0 11.0 0.00 0.06 0.06 90 1012.8
20260505164803 60 9 6.0 11.0 0.00 0.06 0.06 90 1012.9
20260505164403 60 9 5.0 10.0 0.00 0.06 0.06 90 1012.6
20260505164003 60 8 5.0 9.0 0.00 0.06 0.06 89 1012.8
20260505163814 60 11 5.0 9.0 0.00 0.06 0.06 89 1012.9
20260505163203 60 7 5.0 9.0 0.00 0.06 0.06 89 1013.0
20260505163012 60 5 5.0 9.0 0.00 0.06 0.06 89 1013.0
20260505162403 60 356 5.0 10.0 0.00 0.06 0.06 89 1013.0
20260505162003 60 358 5.0 10.0 0.00 0.06 0.06 89 1013.0
20260505161603 60 1 5.0 9.0 0.00 0.06 0.06 89 1013.1
20260505161203 60 3 5.0 9.0 0.00 0.06 0.06 89 1013.0
20260505161014 60 2 4.0 9.0 0.00 0.06 0.06 89 1013.1
20260505160614 60 3 5.0 8.0 0.00 0.06 0.06 88 1012.9
20260505153203 62 342 4.0 9.0 0.00 0.06 0.06 85 1013.0
20260505152803 62 340 4.0 8.0 0.00 0.06 0.06 85 1013.1
20260505152403 62 346 3.0 8.0 0.00 0.06 0.06 85 1013.2
20260505152217 62 350 3.0 6.0 0.00 0.06 0.06 84 1013.1
20260505151603 62 355 3.0 8.0 0.00 0.06 0.06 85 1013.0
20260505151203 62 359 3.0 8.0 0.00 0.06 0.06 85 1013.1
20260505151015 62 354 2.0 7.0 0.00 0.06 0.06 85 1012.9
20260505150403 62 4 3.0 7.0 0.00 0.06 0.06 85 1013.1
20260505140403 61 3 4.0 7.0 0.00 0.06 0.06 85 1013.2
20260505124803 61 24 3.0 6.0 0.00 0.06 0.06 84 1014.2
20260505124618 61 32 3.0 6.0 0.00 0.06 0.06 84 1014.0
20260505124003 61 52 2.0 4.0 0.00 0.06 0.06 84 1014.1
20260505123603 61 51 3.0 6.0 0.00 0.06 0.06 84 1014.1
20260505123203 61 39 3.0 6.0 0.00 0.06 0.06 84 1014.1
20260505123015 61 36 3.0 6.0 0.00 0.06 0.06 84 1014.1
20260505122403 61 33 3.0 7.0 0.00 0.06 0.06 84 1014.1
20260505122003 61 28 4.0 7.0 0.00 0.06 0.06 84 1014.1
20260505121603 61 28 4.0 7.0 0.00 0.06 0.06 83 1014.0
20260505121203 61 38 4.0 7.0 0.00 0.06 0.06 83 1014.1
20260505120803 61 47 4.0 7.0 0.00 0.06 0.06 83 1014.2
20260505120616 61 53 4.0 7.0 0.00 0.06 0.06 83 1014.2
20260505120004 61 57 4.0 7.0 0.00 0.06 0.06 81 1014.2
20260505115603 61 48 5.0 8.0 0.00 0.06 0.06 81 1014.1
20260505115203 61 42 5.0 8.0 0.00 0.06 0.06 79 1013.9
20260505114803 61 42 4.0 8.0 0.00 0.06 0.06 79 1014.1
20260505114403 61 48 4.0 6.0 0.00 0.06 0.06 80 1014.2
20260505114003 61 52 5.0 10.0 0.00 0.06 0.06 78 1014.1
20260505113603 61 59 5.0 10.0 0.00 0.06 0.06 77 1014.1
20260505113203 61 60 6.0 10.0 0.00 0.06 0.06 78 1014.0
20260505112803 61 68 6.0 10.0 0.01 0.06 0.06 78 1014.2
20260505112403 62 66 6.0 10.0 0.01 0.06 0.06 77 1014.0
20260505112214 62 62 7.0 14.0 0.01 0.06 0.06 78 1014.1
20260505111603 62 51 7.0 14.0 0.01 0.06 0.06 80 1014.2
20260505111203 62 44 6.0 11.0 0.01 0.06 0.06 79 1014.2
20260505110803 62 35 5.0 8.0 0.01 0.06 0.06 82 1014.0
20260505110403 61 33 4.0 8.0 0.01 0.06 0.06 81 1014.1
20260505102004 61 67 4.0 7.0 0.00 0.05 0.05 80 1014.5
20260505101603 61 69 4.0 7.0 0.00 0.05 0.05 79 1014.4
20260505101203 61 78 4.0 7.0 0.00 0.05 0.05 78 1014.5
20260505100803 62 86 3.0 6.0 0.01 0.05 0.05 77 1014.7
20260505100403 62 78 3.0 4.0 0.01 0.05 0.05 78 1014.7
20260505095603 61 87 1.0 3.0 0.01 0.05 0.05 79 1014.7
20260505095203 61 68 1.0 3.0 0.02 0.05 0.05 79 1015.0
20260505094803 61 65 1.0 4.0 0.03 0.05 0.05 81 1014.9
20260505094614 61 60 2.0 4.0 0.03 0.05 0.05 81 1014.7
20260505094003 61 44 2.0 4.0 0.04 0.05 0.05 82 1014.7
20260505093603 61 30 2.0 4.0 0.04 0.05 0.05 82 1014.4
20260505093203 60 35 2.0 4.0 0.05 0.05 0.05 82 1014.5
20260505093017 60 38 2.0 4.0 0.05 0.05 0.05 81 1014.5
20260505092403 60 40 1.0 2.0 0.05 0.05 0.05 81 1014.5
20260505092003 61 52 1.0 3.0 0.05 0.05 0.05 82 1014.6
20260505091603 61 56 2.0 3.0 0.05 0.05 0.05 82 1014.4
20260505091414 61 60 1.0 3.0 0.05 0.05 0.05 81 1014.6
20260505090803 61 68 0.0 2.0 0.04 0.04 0.04 78 1014.5
20260505090403 61 0 0.0 0.0 0.04 0.04 0.04 79 1014.5
20260505090217 61 0 0.0 0.0 0.04 0.04 0.04 78 1014.6
20260505085603 61 0 0.0 0.0 0.04 0.04 0.04 77 1014.7
20260505085203 61 0 0.0 0.0 0.03 0.03 0.03 77 1014.4
20260505084803 61 0 0.0 0.0 0.02 0.02 0.02 78 1014.5
20260505084403 61 0 0.0 0.0 0.02 0.02 0.02 77 1014.6
20260505084003 61 0 0.0 0.0 0.01 0.01 0.01 74 1014.6
20260505083603 62 0 0.0 0.0 0.01 0.01 0.01 76 1014.5
20260505083203 62 0 0.0 0.0 0.00 0.00 0.00 75 1014.6
20260505083012 62 0 0.0 0.0 0.00 0.00 0.00 74 1014.5
20260505082403 62 0 0.0 0.0 0.00 0.00 0.00 76 1014.5
20260505082003 62 0 0.0 0.0 0.00 0.00 0.00 77 1014.5
20260505081603 62 0 0.0 0.0 0.00 0.00 0.00 76 1014.3
20260505081203 62 0 0.0 0.0 0.00 0.00 0.00 76 1014.5
20260505080803 62 0 0.0 0.0 0.00 0.00 0.00 77 1014.3
20260505080403 62 0 0.0 0.0 0.00 0.00 0.00 77 1014.4
20260505080003 62 0 0.0 0.0 0.00 0.00 0.00 77 1014.4
20260505075603 62 0 0.0 0.0 0.00 0.00 0.00 77 1014.4
20260505075417 62 0 0.0 0.0 0.00 0.00 0.00 78 1014.4
20260505074803 62 0 0.0 0.0 0.00 0.00 0.00 78 1014.5
20260505074403 61 0 0.0 0.0 0.00 0.00 0.00 78 1014.4
20260505074003 61 0 0.0 0.0 0.00 0.00 0.00 77 1014.6
20260505073603 61 0 0.0 0.0 0.00 0.00 0.00 78 1014.4
20260505073203 61 0 0.0 0.0 0.00 0.00 0.00 77 1014.5
20260505072803 61 0 0.0 0.0 0.00 0.00 0.00 76 1014.3
20260505072403 61 128 0.0 1.0 0.00 0.00 0.00 77 1014.2
20260505072003 61 128 0.0 1.0 0.00 0.00 0.00 76 1014.3
20260505071603 61 128 0.0 2.0 0.00 0.00 0.00 76 1014.4
20260505071415 61 128 0.0 2.0 0.00 0.00 0.00 77 1014.3
20260505070803 61 128 1.0 2.0 0.00 0.00 0.00 77 1014.4
20260505070403 60 128 1.0 2.0 0.00 0.00 0.00 77 1014.3
20260505070004 60 126 0.0 2.0 0.00 0.00 0.00 77 1014.3
20260505065603 60 121 0.0 2.0 0.00 0.00 0.00 76 1014.2
20260505065203 60 87 0.0 2.0 0.00 0.00 0.00 78 1014.1
20260505064803 60 83 1.0 2.0 0.00 0.00 0.00 78 1014.1
20260505064403 60 89 1.0 2.0 0.00 0.00 0.00 78 1014.0
20260505064003 60 94 1.0 2.0 0.00 0.00 0.00 79 1013.9
20260505063603 60 96 0.0 2.0 0.00 0.00 0.00 79 1014.1
20260505063203 60 0 0.0 0.0 0.00 0.00 0.00 80 1013.9
20260505062803 60 157 1.0 2.0 0.00 0.00 0.00 79 1014.0
20260505062403 60 156 1.0 2.0 0.00 0.00 0.00 80 1014.0
20260505062003 59 155 0.0 2.0 0.00 0.00 0.00 81 1013.9
20260505061603 59 0 0.0 0.0 0.00 0.00 0.00 82 1013.9
20260505061203 59 107 0.0 2.0 0.00 0.00 0.00 83 1013.9
20260505061015 59 107 0.0 2.0 0.00 0.00 0.00 83 1013.9
20260505060403 60 96 1.0 2.0 0.00 0.00 0.00 85 1013.9
20260505060003 59 99 1.0 2.0 0.00 0.00 0.00 87 1013.8
20260505055603 59 95 2.0 2.0 0.00 0.00 0.00 88 1013.9
20260505055203 60 80 2.0 3.0 0.00 0.00 0.00 89 1013.7
20260505054803 60 63 1.0 3.0 0.00 0.00 0.00 89 1013.8
20260505054403 60 47 1.0 2.0 0.00 0.00 0.00 90 1013.6
20260505054003 60 0 0.0 0.0 0.00 0.00 0.00 90 1013.5
20260505053815 59 0 0.0 0.0 0.00 0.00 0.00 90 1013.6
20260505053203 59 32 1.0 2.0 0.00 0.00 0.00 90 1013.5
20260505052803 59 26 1.0 2.0 0.00 0.00 0.00 90 1013.6
20260505052403 59 13 1.0 2.0 0.00 0.00 0.00 91 1013.4
20260505052003 59 6 1.0 4.0 0.00 0.00 0.00 91 1013.1
20260505051603 59 6 2.0 4.0 0.00 0.00 0.00 91 1013.4
20260505051203 59 15 2.0 4.0 0.00 0.00 0.00 92 1013.2
20260505050803 59 31 2.0 3.0 0.00 0.00 0.00 92 1013.3
20260505050403 59 43 1.0 3.0 0.00 0.00 0.00 92 1013.4
20260505050215 59 44 1.0 3.0 0.00 0.00 0.00 92 1013.5
20260505041603 59 38 2.0 4.0 0.00 0.00 0.00 92 1013.4
20260505041203 59 39 2.0 4.0 0.00 0.00 0.00 92 1013.3
20260505040803 59 38 2.0 4.0 0.00 0.00 0.00 92 1013.4
20260505040403 59 36 2.0 2.0 0.00 0.00 0.00 91 1013.4
20260505040004 59 34 2.0 4.0 0.00 0.00 0.00 91 1013.3
20260505035603 59 30 2.0 4.0 0.00 0.00 0.00 91 1013.3
20260505035414 59 28 2.0 4.0 0.00 0.00 0.00 91 1013.3
20260505034803 59 25 2.0 2.0 0.00 0.00 0.00 91 1013.2
20260505034403 59 24 1.0 3.0 0.00 0.00 0.00 91 1013.3
20260505034003 59 23 1.0 3.0 0.00 0.00 0.00 91 1013.4
20260505033603 59 18 1.0 3.0 0.00 0.00 0.00 91 1013.2
20260505033203 59 17 1.0 3.0 0.00 0.00 0.00 91 1013.2